486  
ASUS42 KKEY 192310  
RWRKEY  
 
FLORIDA REGIONAL WEATHER ROUNDUP FOR THE FLORIDA KEYS  
NATIONAL WEATHER SERVICE KEY WEST FLORIDA  
700 PM EDT FRI SEP 19 2014  
   
..SOUTH FLORIDA AND THE KEYS
 
 
 
CITY SKY/WX TMP DP RH WIND PRES REMARKS
 
FORT MYERS CLOUDY 78 75 90 CALM 29.91R  
SW REGIONAL AP CLOUDY 79 63 57 S5 29.91S  
NAPLES CLOUDY 81 75 82 CALM 29.92R  
MIAMI CLOUDY 78 74 87 CALM 29.93R  
WEST KENDALL CLOUDY 82 73 74 CALM 29.93R  
HOMESTEAD CLOUDY 80 75 84 E3 29.93R  
MARATHON MOCLDY 84 77 79 NE6 29.92R HX 94  
BOCA CHICA NAS CLOUDY 84 74 71 SW6 29.92R HX 91  
KEY WEST INTL PTCLDY 85 74 69 S5 29.93R HX 92  
   
..INTERNATIONAL WEATHER
 
 
 
CITY SKY/WX TMP DP RH WIND PRES REMARKS
 
NASSAU BAHAMAS NOT AVBL  
CANCUN MEXICO MOSUNNY 86 77 74 SE12 29.87R HX 97  
COZUMEL MEXICO PTSUNNY 82 75 78 SE8 29.87R  
 
ADJACENT COASTAL WATERS...  
 
STATION/POSITION TIME SKY/WX TEMP WIND PRES WAVE
 
AIR SEA DIR/SP/G HT/PER  
(UTC) (F) (DEG/KT/KT) (MB) (FT/S)  
PULASKI SHOAL LI 2300 84 210/ 7/ 8 1013.0R  
SAND KEY 2241 83 190/ 4/ 7 1013.3R  
SOMBRERO KEY 2300 85 160/ 4/ 4 1014.2R  
LONG KEY 2158 82 86 30/ 5/ 6 1013.5R  
MOLASSES REEF 2300 82 85 30/ 2/ 2 1013.5R  
FOWEY ROCKS 2300 81 85 40/ 3/ 3 1013.9R  
BUOY 42080 NOT AVBL  
 

 
 
CLICK HERE TO GO TO PREVIOUS BULLETINS.

The Nexlab FL Page Main Text Page